Wetbulb
39.01 39.06 39.42 39.89 39.51 39.38 39.68 40.52 41.90 43.15 44.04 47.95 50.93 52.24 52.88 51.48 48.59 50.22 48.31 48.57 48.67 48.49
38.62 38.86 39.27 39.51 39.45 39.40 39.81 41.75 42.85 43.30 44.01 47.98 50.95 51.57 52.14 48.56 48.74 50.15 48.63 47.82 47.96 48.14
38.50 38.97 39.29 39.50 39.58 39.75 40.20 41.37 42.88 43.57 44.14 46.69 49.66 51.35 50.76 47.17 47.35 49.20 48.00 48.45 47.78 48.21
38.24 38.85 39.24 39.57 39.79 40.12 41.03 42.30 42.95 43.58 44.10 45.40 48.09 48.58 48.74 47.39 47.60 48.20 47.41 47.44 48.27 48.21
38.17 38.49 38.65 39.20 40.06 40.60 41.15 42.69 43.03 43.53 44.07 44.92 47.89 49.32 48.07 47.30 46.26 47.16 45.16 46.67 47.69 48.09
37.30 37.59 38.40 39.54 40.17 40.58 41.13 42.08 42.77 43.47 43.65 45.23 47.41 50.51 48.90 47.80 46.78 45.84 45.39 45.34 47.44 47.75
36.73 37.82 38.92 39.58 39.94 40.35 41.28 41.78 42.54 43.15 43.66 45.01 47.94 50.71 49.73 48.20 48.52 46.33 46.58 46.46 47.37 47.44
37.13 38.25 38.85 38.97 39.29 40.05 41.41 42.66 43.36 43.12 43.53 44.36 47.53 49.81 50.36 48.94 48.13 46.38 45.91 45.81 46.71 47.50
36.81 37.64 37.79 38.27 38.69 39.89 41.34 42.39 45.26 45.41 44.80 43.03 46.44 44.87 44.11 46.70 46.92 46.72 46.54 45.24 44.56 44.35
36.26 36.59 37.00 37.44 38.16 39.48 40.87 42.46 44.11 44.88 44.51 42.65 44.99 43.89 42.84 42.37 47.89 46.43 46.09 45.28 44.44 42.79
35.39 35.45 35.57 36.11 37.88 39.40 40.46 41.96 43.71 43.99 44.12 42.47 44.41 42.55 41.84 40.36 47.75 46.81 46.18 45.55 45.14 44.45
35.12 34.78 34.65 35.80 37.05 38.70 39.93 41.06 43.29 43.02 43.34 42.33 43.67 41.70 40.58 42.25 46.52 44.80 44.11 44.01 44.25 44.15
34.56 35.20 35.26 34.96 35.94 35.86 39.72 38.36 35.86 39.17 40.45 37.28 42.54 41.23 40.07 42.86 44.39 43.06 37.95 40.34 40.74 36.43
33.53 33.75 35.09 35.71 34.56 36.27 37.65 36.46 37.06 36.70 36.88 36.82 36.79 41.28 40.63 40.78 43.63 40.96 36.99 37.02 36.46 35.88
MSLP
1018.91 1019.34 1019.42 1019.48 1019.82 1019.89 1019.77 1019.53 1019.42 1019.29 1019.00 1018.58 1018.26 1017.88 1017.78 1018.15 1018.43 1018.44 1018.58 1018.68 1018.59 1018.76
1018.82 1019.03 1019.53 1019.49 1019.65 1019.80 1019.76 1019.47 1019.22 1019.27 1019.20 1018.55 1018.30 1018.08 1018.04 1018.47 1018.61 1018.68 1018.98 1019.06 1019.09 1019.31
1018.78 1018.93 1019.19 1019.47 1019.43 1019.66 1019.62 1019.53 1019.26 1019.27 1019.31 1018.99 1018.61 1018.32 1018.44 1018.69 1018.96 1018.81 1019.40 1019.41 1019.57 1019.80
1018.53 1018.63 1018.90 1019.20 1019.25 1019.48 1019.46 1019.48 1019.32 1019.11 1019.08 1019.14 1018.86 1018.81 1018.67 1019.02 1019.14 1019.22 1019.40 1019.83 1019.73 1020.28
1018.14 1018.41 1018.88 1019.09 1019.23 1019.39 1019.50 1019.36 1019.35 1019.23 1019.14 1019.26 1019.12 1018.88 1018.99 1019.13 1019.36 1019.59 1019.74 1019.96 1020.22 1020.48
1018.17 1018.46 1018.72 1018.77 1019.04 1019.15 1019.38 1019.43 1019.34 1019.28 1019.18 1019.10 1019.11 1019.07 1019.05 1019.00 1019.39 1019.58 1019.82 1019.91 1020.41 1020.66
1017.84 1018.22 1018.36 1018.50 1018.84 1019.08 1019.16 1019.40 1019.37 1019.34 1019.27 1019.13 1019.08 1018.97 1019.20 1019.29 1019.28 1019.59 1019.93 1020.03 1020.19 1020.92
1017.47 1017.98 1018.16 1018.43 1018.64 1018.82 1018.96 1019.04 1019.12 1019.28 1019.29 1019.26 1019.12 1019.01 1019.13 1019.37 1019.53 1019.60 1019.88 1020.35 1020.26 1020.87
1017.34 1017.72 1017.81 1017.99 1018.40 1018.60 1018.67 1018.77 1018.82 1018.83 1018.96 1019.30 1019.10 1019.03 1019.03 1019.29 1019.53 1019.71 1019.98 1020.28 1020.82 1020.79
1017.03 1017.50 1017.71 1017.94 1018.31 1018.61 1018.67 1018.62 1018.66 1018.82 1018.80 1018.90 1018.94 1019.07 1018.97 1019.23 1019.47 1019.66 1019.92 1020.24 1020.79 1021.35
1016.84 1017.19 1017.47 1017.79 1018.15 1018.44 1018.55 1018.47 1018.37 1018.64 1018.88 1018.95 1018.70 1018.84 1018.97 1019.10 1019.31 1019.59 1019.82 1020.15 1020.52 1021.08
1016.89 1017.25 1017.58 1017.86 1018.14 1018.32 1018.41 1018.49 1018.36 1018.34 1018.66 1018.75 1018.67 1018.60 1018.77 1018.96 1019.24 1019.45 1019.78 1020.10 1020.46 1020.78
1016.74 1017.05 1017.36 1017.70 1018.07 1018.10 1018.20 1018.42 1018.48 1018.30 1018.72 1018.68 1018.79 1018.33 1018.55 1018.96 1019.03 1019.56 1019.92 1020.26 1020.42 1020.67
1017.03 1017.25 1017.37 1017.60 1017.88 1017.87 1018.16 1018.40 1018.43 1018.40 1018.59 1018.75 1018.94 1018.67 1018.08 1018.80 1018.92 1019.24 1019.92 1020.31 1020.46 1020.44
Wind_Speed
4 3 3 3 2 2 1 2 3 3 3 4 4 4 2 3 3 3 3 5 3 5
4 4 4 3 2 1 2 2 4 3 4 4 3 4 4 3 3 4 3 5 5 5
4 4 4 3 3 3 2 2 3 4 4 4 4 3 5 4 3 5 3 3 7 7
5 5 4 4 3 3 2 2 2 4 3 3 2 1 5 5 5 4 5 3 8 8
6 5 5 4 4 3 3 2 2 4 4 4 2 2 3 5 5 5 5 5 6 8
5 5 6 5 4 4 3 2 2 2 5 4 3 2 3 5 5 5 6 6 5 6
6 6 6 5 4 3 3 2 2 3 3 5 4 2 4 4 5 5 5 5 6 4
6 6 5 4 4 4 4 4 3 2 3 5 5 3 4 5 5 5 6 4 6 6
6 6 6 6 5 5 4 4 4 4 3 4 3 7 6 6 5 6 6 7 3 6
6 6 6 5 5 5 5 3 3 3 3 5 4 5 7 7 4 6 6 7 7 4
6 6 6 6 6 4 4 5 3 3 4 5 4 3 6 8 5 4 5 6 8 8
5 4 4 4 4 3 3 3 3 2 4 5 4 1 5 7 5 5 5 5 6 8
5 5 6 5 5 3 2 3 2 1 3 2 5 4 0 7 4 5 3 4 5 8
3 2 3 4 3 4 3 2 2 3 1 1 4 4 6 2 4 5 4 4 4 3
Wind_Direction
176 189 185 181 189 237 258 283 311 332 338 334 340 18 45 71 81 79 76 68 61 91
176 181 197 192 174 226 266 277 301 328 337 342 345 52 75 67 85 82 75 81 83 81
192 195 195 186 187 215 258 282 312 326 346 347 356 51 85 92 82 95 66 98 97 86
195 196 189 200 191 206 218 255 297 307 331 331 354 351 95 102 113 104 101 71 107 105
187 186 196 211 212 186 226 247 283 308 316 317 328 183 137 123 134 133 127 117 113 124
185 189 209 209 218 179 207 231 280 293 305 309 322 204 158 140 141 143 146 145 141 145
185 195 205 194 213 201 183 210 256 283 299 301 313 263 168 151 148 148 151 161 138 151
185 187 190 190 202 215 187 188 197 252 311 301 303 298 180 158 159 155 146 166 146 141
180 182 186 184 192 206 208 199 201 197 233 294 280 300 264 159 159 158 159 154 149 135
179 186 186 183 182 202 212 206 209 224 198 254 261 286 278 204 164 163 161 151 147 149
173 183 176 171 191 199 213 211 196 224 248 250 249 267 268 218 178 166 162 162 159 158
170 167 162 180 194 199 201 235 209 185 256 240 247 169 280 199 176 171 164 157 158 159
160 167 176 180 178 180 185 237 242 206 279 319 271 106 76 227 151 166 159 176 167 177
107 150 176 168 174 165 178 236 223 208 221 285 302 288 113 243 178 169 168 182 194 187